Regional Weather Roundup
Issued by NWS

Home | Current Version | Previous Version | Graphics & Text | Print | Product List | Glossary Off
Versions: 1 2 3 4 5 6 7 8 9 10 11 12 13 14 15 16 17 18 19 20 21 22 23 24 25 26 27 28 29 30 31 32 33 34 35 36 37 38 39 40 41 42 43 44 45 46 47 48 49 50

000
ASUS45 KBOI 290510
RWRID

IDAHO REGIONAL WEATHER ROUNDUP
NATIONAL WEATHER SERVICE BOISE ID
1100 PM MDT TUE JUL 28 2015

NOTE: "FAIR" INDICATES FEW OR NO CLOUDS BELOW 12000 FEET
WITH NO SIGNIFICANT WEATHER AND/OR OBSTRUCTIONS TO VISIBILITY

IDZ012-014-290600-
SOUTHWEST IDAHO


CITY           SKY/WX    TMP DP  RH WIND       PRES   REMARKS
BOISE          CLEAR     68  38  33 CALM      30.20R
CALDWELL       CLEAR     64  39  39 CALM      30.20R
MOUNTAIN HOME  CLEAR     67  27  22 NW5       30.20R
$$

IDZ016-017-290600-
SOUTHCENTRAL IDAHO


CITY           SKY/WX    TMP DP  RH WIND       PRES   REMARKS
BURLEY         CLEAR     51  41  68 CALM      30.26R
JEROME         CLEAR     54  33  45 E3        30.27R
TWIN FALLS     CLEAR     55  31  39 S8        30.24R
$$

IDZ019>023-290600-
SOUTHEAST IDAHO


CITY           SKY/WX    TMP DP  RH WIND       PRES   REMARKS
IDAHO FALLS    PTCLDY    50  41  71 CALM      30.32R
POCATELLO      CLEAR     55  36  48 E6        30.30R
REXBURG        PTCLDY    55  38  52 E3        30.32R
$$

IDZ006-010-011-018-031-032-290600-
CENTRAL IDAHO MOUNTAINS


CITY           SKY/WX    TMP DP  RH WIND       PRES   REMARKS
MCCALL         CLEAR     55  37  50 NE3       30.29R
HAILEY         CLEAR     52  37  58 CALM      30.34R
STANLEY          N/A     45  34  65 S5        30.38R
SALMON         CLEAR     55  41  58 S6        30.27R
CHALLIS        CLEAR     54  43  66 CALM      30.31R
$$

IDZ002-004-006-007-026-290600-
NORTHERN IDAHO


CITY           SKY/WX    TMP DP  RH WIND       PRES   REMARKS
LEWISTON       CLEAR     71  34  25 S6        30.15R
LOWELL           N/A     60  50  69 N3        30.22R
COEUR D`ALENE  CLEAR     66  41  39 CALM      30.18R
MULLAN PASS    CLEAR     54  33  45 W5        30.35R
$$



USA.gov is the U.S. government's official web portal to all federal, state and local government web resources and services.